Regional Weather Roundup
Issued by NWS

Home | Current Version | Previous Version | Text Only | Print | Product List | Glossary Off
Versions: 1 2 3 4 5 6 7 8 9 10 11 12 13 14 15 16 17 18 19 20 21 22 23 24 25 26 27 28 29 30 31 32 33 34 35 36 37 38 39 40 41 42 43 44 45 46 47 48 49 50

000
ASUS43 KFSD 270702
RWRSD

WEATHER ROUNDUP FOR SOUTH DAKOTA
NATIONAL WEATHER SERVICE SIOUX FALLS SD
100 AM CST MON FEB 27 2017

NOTE: "FAIR" INDICATES FEW OR NO CLOUDS BELOW 12,000 FEET WITH NO
SIGNIFICANT WEATHER AND/OR OBSTRUCTIONS TO VISIBILITY.


SDZ001>005-009-010-012>017-270800-
NORTHWEST AND NORTH CENTRAL SOUTH DAKOTA

CITY           SKY/WX    TMP DP  RH WIND       PRES   REMARKS
BUFFALO          N/A     22  19  89 E6        29.66F WCI  14
FAITH            N/A     23  23 100 NE9       29.76F WCI  13
MOBRIDGE       CLOUDY    24  20  84 CALM      29.81R
$$

SDZ012>016-024>037-041>051-057-063-072>074-270800-
SOUTHWEST AND SOUTH CENTRAL SOUTH DAKOTA

CITY           SKY/WX    TMP DP  RH WIND       PRES   REMARKS
RAPID CTY ARPT CLOUDY    26  14  60 S6        29.74F WCI  19
PIERRE         PTCLDY    25  14  63 W8        29.81S WCI  16
CUSTER         CLOUDY    15   6  67 S3        29.64F
PHILIP         PTCLDY    23  16  74 W7        29.80S WCI  15
PINE RIDGE     CLOUDY     8   4  83 CALM      29.77F
SPEARFISH      FAIR      21  12  68 CALM      29.69F
WINNER         FAIR      24  13  62 SW14      29.84S WCI  12
$$

SDZ004>011-016>023-039-040-270800-
NORTHEAST SOUTH DAKOTA

CITY           SKY/WX    TMP DP  RH WIND       PRES   REMARKS
ABERDEEN       CLOUDY    22  19  89 N7        29.86R WCI  13
WATERTOWN      CLOUDY    27  23  85 S8        29.82F WCI  19
BROOKINGS      CLOUDY    27  22  81 S8        29.86S WCI  19
SISSETON         N/A     22  20  92 SE5       29.87S WCI  16
$$

SDZ017-020-022-023-036>040-048>070-270800-
SOUTHEAST SOUTH DAKOTA

CITY           SKY/WX    TMP DP  RH WIND       PRES   REMARKS
SIOUX FALLS    CLEAR     28  21  75 SW9       29.90F WCI  19
HURON          PTCLDY    26  20  77 SW5       29.85S WCI  20
CHAMBERLAIN    PTCLDY    26  20  80 SW8       29.85S WCI  17
MITCHELL       CLEAR     27  20  75 SW9       29.89S WCI  18
YANKTON        CLEAR     27  18  69 CALM      29.92F
$$

ABBREVIATIONS USED IN REMARKS
   TC - TEMPERATURE IN CELSIUS
  WCI - WIND CHILL INDEX
   HX - HEAT INDEX
  VSB - VISIBILITY





USA.gov is the U.S. government's official web portal to all federal, state and local government web resources and services.